SCP
0 0 0 0 0 0 0 0 0 0 0 0 0 0 0 0 0 0 0 0 0 0 0 0 0 0 0 0 0 0 0 0 0 0 0 0 0 0
0 0 0 0 0 0 0 0 0 0 0 0 0 0 0 0 0 0 0 0 0 0 0 0 0 0 0 0 0 0 0 0 0 0 0 0 0 0
0 0 0 0 0 0 0 0 0 0 0 0 0 0 0 0 0 0 0 0 0 0 0 0 0 0 0 0 0 0 0 0 0 0 0 0 0 0
0 0 0 0 0 0 0 0 0 0 0 0 0 0 0 0 0 0 0 0 0 0 0 0 0 0 0 0 0 0 0 0 0 0 0 0 0 0
0 0 0 0 0 0 0 0 0 0 0 0 0 0 0 0 0 0 0 0 0 0 0 0 0 0 0 0 0 0 0 0 0 0 0 0 0 0
0 0 0 0 0 0 0 0 0 0 0 0 0 0 0 0 0 0 0 0 0 0 0 0 0 0 0 0 0 0 0 0 0 0 0 0 0 0
0 0 0 0 0 0 0 0 0 0 0 0 0 0 0 0 0 0 0 0 0 0 0 0 0 0 0 0 0 0 0 0 0 0 0 0 0 0
0 0 0 0 0 0 0 0 0 0 0 0 0 0 0 0 0 0 0 0 0 0 0 0 0 0 0 0 0 0 0 0 0 0 0 0 0 0
0 0 0 0 0 0 0 0 0 0 0 0 0 0 0 0 0 0 0 0 0 0 0 0 0 0 0 0 0 0 0 0 0 0 0 0 0 0
0 0 0 0 0 0 0 0 0 0 0 0 0 0 0 0 0 0 0 0 0 0 0 0 0 0 0 0 0 0 0 0 0 0 0 0 0 -0
0 0 0 0 0 0 0 0 0 0 0 0 0 0 0 0 0 0 0 0 0 0 0 0 0 0 0 0 0 0 0 0 0 0 0 0 0 0
0 0 0 0 0 0 0 0 0 0 0 0 0 0 0 0 0 0 0 0 0 0 0 0 0 0 0 0 0 0 0 0 0 0 0 0 -0 0
1 0 0 0 0 0 0 0 0 0 0 0 0 0 0 0 0 0 0 0 0 0 0 0 0 0 0 0 0 0 0 0 0 0 0 0 -0 0
0 1 0 0 0 0 0 0 0 0 0 0 0 0 0 0 0 0 0 0 0 0 0 0 0 0 0 0 0 0 0 0 0 0 0 0 -0 -0
0 0 0 0 0 0 0 0 0 0 0 0 0 0 0 0 0 0 0 0 0 0 0 0 0 0 0 0 0 0 0 0 0 0 0 -0 -0 0
0 0 0 0 0 0 0 0 0 0 0 0 0 0 0 0 0 0 0 0 0 0 0 0 0 0 0 0 0 0 0 0 0 -0 -0 -0 -0 0
0 0 0 0 0 0 0 0 0 0 0 0 0 0 0 0 0 0 0 0 0 0 0 0 0 0 0 0 0 0 0 0 -0 0 -0 0 -0 0
0 0 0 0 0 0 0 0 0 0 0 0 0 0 0 0 0 0 0 0 0 0 0 0 0 0 0 0 0 0 0 -0 -0 -0 0 0 0 0
0 0 0 0 0 0 0 0 0 -0 -0 0 0 0 0 0 0 0 0 0 0 0 0 0 0 0 0 0 0 0 0 0 -0 -0 -0 -0 -0 0
-0 -0 -0 0 0 0 0 -0 0 0 0 0 0 0 0 0 0 0 0 0 0 0 0 0 0 0 0 0 0 0 0 0 0 0 -0 -0 -0 -0
-0 0 -0 -0 -0 -0 0 0 0 0 0 0 0 0 0 0 0 0 0 0 0 0 0 0 0 0 0 0 -0 0 -0 0 0 0 -0 0 0 0
0 0 0 0 0 0 0 0 0 0 0 0 0 0 0 0 0 0 0 0 0 0 0 0 0 0 0 0 0 0 0 -0 0 0 0 0 0 0
-0 -0 -0 0 0 0 0 0 0 0 0 0 0 0 0 0 0 0 0 0 -0 0 0 0 0 0 0 0 0 0 0 0 0 0 0 0 -0 -0
Wind_Speed_500mb
35 38 35 36 39 39 38 32 28 28 25 26 22 26 25 27 32 37 38 33 31 34 33 39 40 42 43 43 44 47 48 39 35 34 37 36 34 31
37 39 37 36 36 37 39 38 34 29 31 22 22 25 28 32 38 40 38 40 41 54 40 39 39 42 46 47 49 51 51 46 39 38 38 37 36 35
41 43 40 39 40 36 37 37 35 32 33 27 25 27 34 33 37 41 34 24 22 27 30 33 37 44 49 53 56 54 53 44 40 36 37 37 37 35
43 46 45 43 44 48 43 44 43 41 36 33 35 32 35 38 38 32 27 22 20 28 31 34 41 43 46 44 41 38 36 33 32 35 37 36 37 34
52 49 48 44 51 48 53 49 51 46 47 50 49 38 42 41 43 40 32 27 27 26 29 29 28 25 27 28 28 29 30 31 33 32 30 33 30 32
55 56 54 52 51 55 56 60 59 63 57 54 56 47 45 45 44 40 33 32 26 27 24 22 25 27 32 28 24 23 22 22 23 25 27 26 26 25
52 52 54 53 56 62 60 60 65 67 64 63 61 52 48 49 42 35 33 34 29 29 17 18 21 23 22 22 18 21 21 24 23 23 22 18 17 19
37 40 52 49 57 57 62 56 64 62 71 68 67 59 51 43 35 33 31 32 26 24 22 21 24 21 22 17 20 19 17 16 15 14 14 14 14 16
42 35 31 37 42 51 57 58 47 53 57 59 70 54 44 28 30 31 32 38 34 24 27 21 21 18 18 18 20 16 12 9 9 14 18 19 20 21
47 47 48 56 51 46 47 52 50 48 45 46 50 44 30 27 32 33 25 19 28 33 28 23 19 17 17 14 13 13 14 15 20 21 20 19 25 23
44 46 46 48 41 45 49 47 52 45 43 44 42 35 35 39 35 28 14 28 27 24 23 17 16 13 12 5 3 10 12 15 16 17 19 19 17 18
52 51 46 37 40 49 49 53 48 41 51 47 41 37 36 33 32 27 24 24 25 22 25 18 13 9 11 11 11 15 13 21 19 22 21 19 18 21
45 50 47 46 46 47 54 49 41 46 45 40 39 33 35 32 30 31 29 26 24 24 21 18 16 13 15 20 18 15 13 13 13 16 13 14 16 19
48 48 48 49 52 52 51 53 40 34 40 44 38 33 28 30 29 30 29 28 28 29 25 24 22 19 19 21 20 16 14 14 14 13 14 16 19 16
49 49 48 55 51 42 37 38 42 49 43 38 30 26 28 27 28 33 33 31 35 31 34 32 33 25 25 23 22 22 15 13 20 20 16 15 12 12
45 47 49 45 37 31 31 35 36 39 35 29 25 22 23 29 35 29 27 29 31 31 36 34 31 31 23 23 23 19 15 17 23 19 18 14 11 10
44 45 41 35 26 29 31 33 38 30 20 26 23 22 22 27 28 29 30 27 27 22 21 25 31 30 27 24 19 16 15 18 14 8 11 12 13 14
40 39 34 31 28 38 37 32 22 21 24 23 21 20 21 24 26 33 30 32 31 23 23 24 22 22 17 17 20 15 13 12 8 8 11 11 10 9
28 26 24 31 21 20 20 25 22 21 29 23 15 13 13 13 15 19 22 25 26 24 15 11 14 17 19 19 10 20 14 13 11 11 8 9 9 9
12 10 9 17 22 24 29 22 19 17 15 10 10 11 12 12 12 14 17 20 22 16 11 19 15 25 19 17 15 14 18 16 13 9 7 7 6 3
17 14 17 25 24 10 7 15 17 12 9 9 10 12 15 9 9 11 17 19 20 14 16 20 30 23 15 13 11 12 10 16 13 7 8 6 7 7
32 28 16 4 4 8 10 9 9 6 6 9 12 12 10 5 6 7 11 14 15 17 16 16 16 17 14 13 10 10 11 7 8 5 7 10 8 7
34 29 23 22 20 17 11 5 2 6 7 5 5 3 0 0 5 6 8 11 10 12 19 20 17 14 12 11 13 13 16 15 8 6 6 3 14 20
Wind_Direction_500mb
252 255 250 250 248 251 252 248 241 249 252 256 244 269 254 241 242 243 251 258 263 277 283 265 269 272 268 273 285 294 302 296 296 302 303 307 305 306
256 255 248 251 254 251 251 250 245 243 257 249 243 245 247 253 262 260 253 254 264 278 282 278 272 272 270 272 280 287 292 293 285 291 296 300 305 304
253 252 251 251 252 251 255 254 248 243 248 246 240 251 260 247 259 263 263 279 274 274 284 282 285 282 277 279 280 282 286 283 279 283 290 295 301 302
259 252 253 252 253 257 252 256 254 255 251 249 247 264 263 262 260 257 260 266 265 280 287 292 289 286 284 282 282 279 278 277 276 280 290 292 293 296
259 255 251 252 253 254 251 252 252 250 247 249 254 263 261 261 251 259 248 260 267 277 297 299 299 305 304 301 296 281 278 274 278 279 281 293 288 295
255 253 253 254 258 255 255 260 248 248 248 246 252 256 257 250 255 245 254 245 252 274 299 299 304 311 320 302 294 291 289 286 281 280 288 291 292 295
270 259 256 258 268 259 260 265 257 254 247 243 252 247 248 247 256 249 241 253 262 258 276 293 293 299 307 314 296 288 291 291 283 283 285 283 290 296
277 266 267 263 271 266 263 264 266 258 249 244 246 244 251 255 248 233 252 247 239 259 277 301 294 298 298 296 285 294 303 300 277 270 270 280 292 307
275 274 282 293 283 274 271 268 263 265 256 252 251 243 250 233 233 243 253 262 243 250 271 286 295 300 301 300 292 283 294 305 298 289 278 274 284 297
270 272 274 273 277 289 272 268 260 253 250 253 239 242 220 227 231 249 239 237 242 243 265 279 288 302 300 305 304 275 277 297 302 297 283 287 288 278
290 281 274 276 280 277 278 272 261 256 243 233 229 213 209 228 241 239 231 240 243 244 251 261 285 296 295 281 326 335 315 325 312 290 288 291 301 279
291 296 286 284 295 288 273 268 268 259 228 217 205 207 218 234 235 231 225 227 239 241 246 253 266 280 285 269 264 304 296 301 303 304 280 286 291 288
283 285 293 286 289 289 287 262 251 240 215 207 201 209 227 218 227 220 224 222 228 234 242 255 257 257 258 273 283 295 300 298 300 304 296 283 298 298
283 287 287 281 283 274 269 265 246 227 200 194 203 214 215 213 216 226 229 226 224 228 243 250 256 256 266 284 283 284 289 295 280 293 297 297 299 292
285 291 295 292 284 271 253 228 210 203 198 202 202 215 214 216 216 227 228 229 229 236 244 240 271 256 265 269 283 285 281 287 292 279 281 297 301 297
289 289 288 281 281 267 226 216 210 190 201 195 208 216 209 219 225 221 220 227 231 242 241 244 257 254 262 272 274 274 282 292 294 286 281 291 292 293
290 292 287 279 263 233 214 203 198 188 182 215 219 210 217 223 220 223 221 223 233 234 221 238 241 233 259 258 261 253 263 293 291 272 292 308 298 293
288 292 296 263 253 223 200 194 196 201 230 230 231 232 228 232 229 243 232 231 234 220 208 215 244 254 230 246 238 251 281 293 301 305 308 306 298 301
305 298 290 260 211 213 196 176 177 200 229 242 222 220 223 230 237 221 222 220 220 219 242 234 210 214 218 227 227 253 267 279 301 301 310 312 314 315
303 291 244 196 176 155 177 194 225 202 172 184 218 234 250 246 229 221 216 217 223 221 206 199 209 216 221 251 255 259 263 258 279 277 297 320 317 28
138 115 104 107 118 142 214 176 172 180 195 225 244 253 255 242 220 208 219 204 204 221 239 245 239 241 212 221 239 231 242 249 245 257 298 291 282 289
91 104 88 43 79 116 127 146 155 174 232 257 264 265 257 167 185 201 219 235 236 248 241 222 212 182 191 203 209 197 183 221 188 187 246 273 278 272
91 93 95 94 95 101 104 112 260 274 273 262 266 264 246 162 151 153 151 148 137 128 162 159 161 165 178 190 183 178 180 178 172 224 230 336 337 325
Wind_Speed_850mb
35 38 35 36 39 39 38 32 28 28 25 26 22 26 25 27 32 37 38 33 31 34 33 39 40 42 43 43 44 47 48 39 35 34 37 36 34 31
37 39 37 36 36 37 39 38 34 29 31 22 22 25 28 32 38 40 38 40 41 54 40 39 39 42 46 47 49 51 51 46 39 38 38 37 36 35
41 43 40 39 40 36 37 37 35 32 33 27 25 27 34 33 37 41 34 24 22 27 30 33 37 44 49 53 56 54 53 44 40 36 37 37 37 35
43 46 45 43 44 48 43 44 43 41 36 33 35 32 35 38 38 32 27 22 20 28 31 34 41 43 46 44 41 38 36 33 32 35 37 36 37 34
52 49 48 44 51 48 53 49 51 46 47 50 49 38 42 41 43 40 32 27 27 26 29 29 28 25 27 28 28 29 30 31 33 32 30 33 30 32
55 56 54 52 51 55 56 60 59 63 57 54 56 47 45 45 44 40 33 32 26 27 24 22 25 27 32 28 24 23 22 22 23 25 27 26 26 25
52 52 54 53 56 62 60 60 65 67 64 63 61 52 48 49 42 35 33 34 29 29 17 18 21 23 22 22 18 21 21 24 23 23 22 18 17 19
37 40 52 49 57 57 62 56 64 62 71 68 67 59 51 43 35 33 31 32 26 24 22 21 24 21 22 17 20 19 17 16 15 14 14 14 14 16
42 35 31 37 42 51 57 58 47 53 57 59 70 54 44 28 30 31 32 38 34 24 27 21 21 18 18 18 20 16 12 9 9 14 18 19 20 21
47 47 48 56 51 46 47 52 50 48 45 46 50 44 30 27 32 33 25 19 28 33 28 23 19 17 17 14 13 13 14 15 20 21 20 19 25 23
44 46 46 48 41 45 49 47 52 45 43 44 42 35 35 39 35 28 14 28 27 24 23 17 16 13 12 5 3 10 12 15 16 17 19 19 17 18
52 51 46 37 40 49 49 53 48 41 51 47 41 37 36 33 32 27 24 24 25 22 25 18 13 9 11 11 11 15 13 21 19 22 21 19 18 21
45 50 47 46 46 47 54 49 41 46 45 40 39 33 35 32 30 31 29 26 24 24 21 18 16 13 15 20 18 15 13 13 13 16 13 14 16 19
48 48 48 49 52 52 51 53 40 34 40 44 38 33 28 30 29 30 29 28 28 29 25 24 22 19 19 21 20 16 14 14 14 13 14 16 19 16
49 49 48 55 51 42 37 38 42 49 43 38 30 26 28 27 28 33 33 31 35 31 34 32 33 25 25 23 22 22 15 13 20 20 16 15 12 12
45 47 49 45 37 31 31 35 36 39 35 29 25 22 23 29 35 29 27 29 31 31 36 34 31 31 23 23 23 19 15 17 23 19 18 14 11 10
44 45 41 35 26 29 31 33 38 30 20 26 23 22 22 27 28 29 30 27 27 22 21 25 31 30 27 24 19 16 15 18 14 8 11 12 13 14
40 39 34 31 28 38 37 32 22 21 24 23 21 20 21 24 26 33 30 32 31 23 23 24 22 22 17 17 20 15 13 12 8 8 11 11 10 9
28 26 24 31 21 20 20 25 22 21 29 23 15 13 13 13 15 19 22 25 26 24 15 11 14 17 19 19 10 20 14 13 11 11 8 9 9 9
12 10 9 17 22 24 29 22 19 17 15 10 10 11 12 12 12 14 17 20 22 16 11 19 15 25 19 17 15 14 18 16 13 9 7 7 6 3
17 14 17 25 24 10 7 15 17 12 9 9 10 12 15 9 9 11 17 19 20 14 16 20 30 23 15 13 11 12 10 16 13 7 8 6 7 7
32 28 16 4 4 8 10 9 9 6 6 9 12 12 10 5 6 7 11 14 15 17 16 16 16 17 14 13 10 10 11 7 8 5 7 10 8 7
34 29 23 22 20 17 11 5 2 6 7 5 5 3 0 0 5 6 8 11 10 12 19 20 17 14 12 11 13 13 16 15 8 6 6 3 14 20
Wind_Direction_850mb
252 255 250 250 248 251 252 248 241 249 252 256 244 269 254 241 242 243 251 258 263 277 283 265 269 272 268 273 285 294 302 296 296 302 303 307 305 306
256 255 248 251 254 251 251 250 245 243 257 249 243 245 247 253 262 260 253 254 264 278 282 278 272 272 270 272 280 287 292 293 285 291 296 300 305 304
253 252 251 251 252 251 255 254 248 243 248 246 240 251 260 247 259 263 263 279 274 274 284 282 285 282 277 279 280 282 286 283 279 283 290 295 301 302
259 252 253 252 253 257 252 256 254 255 251 249 247 264 263 262 260 257 260 266 265 280 287 292 289 286 284 282 282 279 278 277 276 280 290 292 293 296
259 255 251 252 253 254 251 252 252 250 247 249 254 263 261 261 251 259 248 260 267 277 297 299 299 305 304 301 296 281 278 274 278 279 281 293 288 295
255 253 253 254 258 255 255 260 248 248 248 246 252 256 257 250 255 245 254 245 252 274 299 299 304 311 320 302 294 291 289 286 281 280 288 291 292 295
270 259 256 258 268 259 260 265 257 254 247 243 252 247 248 247 256 249 241 253 262 258 276 293 293 299 307 314 296 288 291 291 283 283 285 283 290 296
277 266 267 263 271 266 263 264 266 258 249 244 246 244 251 255 248 233 252 247 239 259 277 301 294 298 298 296 285 294 303 300 277 270 270 280 292 307
275 274 282 293 283 274 271 268 263 265 256 252 251 243 250 233 233 243 253 262 243 250 271 286 295 300 301 300 292 283 294 305 298 289 278 274 284 297
270 272 274 273 277 289 272 268 260 253 250 253 239 242 220 227 231 249 239 237 242 243 265 279 288 302 300 305 304 275 277 297 302 297 283 287 288 278
290 281 274 276 280 277 278 272 261 256 243 233 229 213 209 228 241 239 231 240 243 244 251 261 285 296 295 281 326 335 315 325 312 290 288 291 301 279
291 296 286 284 295 288 273 268 268 259 228 217 205 207 218 234 235 231 225 227 239 241 246 253 266 280 285 269 264 304 296 301 303 304 280 286 291 288
283 285 293 286 289 289 287 262 251 240 215 207 201 209 227 218 227 220 224 222 228 234 242 255 257 257 258 273 283 295 300 298 300 304 296 283 298 298
283 287 287 281 283 274 269 265 246 227 200 194 203 214 215 213 216 226 229 226 224 228 243 250 256 256 266 284 283 284 289 295 280 293 297 297 299 292
285 291 295 292 284 271 253 228 210 203 198 202 202 215 214 216 216 227 228 229 229 236 244 240 271 256 265 269 283 285 281 287 292 279 281 297 301 297
289 289 288 281 281 267 226 216 210 190 201 195 208 216 209 219 225 221 220 227 231 242 241 244 257 254 262 272 274 274 282 292 294 286 281 291 292 293
290 292 287 279 263 233 214 203 198 188 182 215 219 210 217 223 220 223 221 223 233 234 221 238 241 233 259 258 261 253 263 293 291 272 292 308 298 293
288 292 296 263 253 223 200 194 196 201 230 230 231 232 228 232 229 243 232 231 234 220 208 215 244 254 230 246 238 251 281 293 301 305 308 306 298 301
305 298 290 260 211 213 196 176 177 200 229 242 222 220 223 230 237 221 222 220 220 219 242 234 210 214 218 227 227 253 267 279 301 301 310 312 314 315
303 291 244 196 176 155 177 194 225 202 172 184 218 234 250 246 229 221 216 217 223 221 206 199 209 216 221 251 255 259 263 258 279 277 297 320 317 28
138 115 104 107 118 142 214 176 172 180 195 225 244 253 255 242 220 208 219 204 204 221 239 245 239 241 212 221 239 231 242 249 245 257 298 291 282 289
91 104 88 43 79 116 127 146 155 174 232 257 264 265 257 167 185 201 219 235 236 248 241 222 212 182 191 203 209 197 183 221 188 187 246 273 278 272
91 93 95 94 95 101 104 112 260 274 273 262 266 264 246 162 151 153 151 148 137 128 162 159 161 165 178 190 183 178 180 178 172 224 230 336 337 325